When you browse on this site, cookies collect data to enhance your experience and personalize the content and advertising you see.
Visit our Privacy Policy to learn more. By continuing to use the site, you agree to this use of cookies and data.
EN

Hourly Weather Sankt Polten

Today, 28 September, Monday

Time Temperature Precipitation Wind Pressure Humidity
00:00 +10°C° 0 mm 1 mps 730 mmHg 84%
01:00 +9°C° 0 mm 2 mps 731 mmHg 80%
02:00 +9°C° 0.4 mm 2 mps 730 mmHg 85%
03:00 +9°C° 0.4 mm 2 mps 730 mmHg 89%
04:00 +8°C° 0.4 mm 2 mps 729 mmHg 94%
05:00 +8°C° 0.8 mm 3 mps 729 mmHg 95%
06:00 +8°C° 0.8 mm 3 mps 730 mmHg 96%
07:00 +8°C° 0 mm 3 mps 730 mmHg 97%
08:00 +9°C° 0.5 mm 3 mps 730 mmHg 97%
09:00 +9°C° 0.5 mm 2 mps 730 mmHg 96%
10:00 +9°C° 0.5 mm 2 mps 730 mmHg 96%
11:00 +10°C° 0.4 mm 1 mps 730 mmHg 96%
12:00 +11°C° 0.4 mm 1 mps 730 mmHg 96%
13:00 +11°C° 0 mm 1 mps 731 mmHg 96%
14:00 +11°C° 0.2 mm 1 mps 731 mmHg 96%
15:00 +11°C° 0.2 mm 1 mps 731 mmHg 96%
16:00 +11°C° 0.2 mm 1 mps 731 mmHg 96%
17:00 +10°C° 0.1 mm 2 mps 731 mmHg 96%
18:00 +9°C° 0.1 mm 2 mps 732 mmHg 96%
19:00 +9°C° 0.1 mm 2 mps 732 mmHg 97%
20:00 +9°C° 0 mm 2 mps 733 mmHg 96%
21:00 +9°C° 0 mm 2 mps 733 mmHg 96%
22:00 +9°C° 0 mm 3 mps 734 mmHg 96%
23:00 +9°C° 0 mm 3 mps 734 mmHg 96%

Tomorrow, 29 September, Tuesday

Time Temperature Precipitation Wind Pressure Humidity
00:00 +9°C° 0 mm 3 mps 734 mmHg 96%
01:00 +8°C° 0 mm 3 mps 734 mmHg 95%
02:00 +9°C° 0 mm 3 mps 734 mmHg 95%
03:00 +9°C° 0 mm 3 mps 734 mmHg 95%
04:00 +9°C° 0 mm 3 mps 735 mmHg 95%
05:00 +9°C° 0 mm 3 mps 735 mmHg 95%
06:00 +9°C° 0 mm 3 mps 735 mmHg 94%
07:00 +9°C° 0 mm 2 mps 735 mmHg 93%
08:00 +10°C° 0 mm 3 mps 735 mmHg 89%
09:00 +11°C° 0 mm 3 mps 735 mmHg 84%
10:00 +12°C° 0 mm 4 mps 735 mmHg 79%
11:00 +13°C° 0.1 mm 4 mps 735 mmHg 75%
12:00 +14°C° 0.1 mm 4 mps 735 mmHg 71%
13:00 +15°C° 0.1 mm 4 mps 735 mmHg 66%
14:00 +15°C° 0.1 mm 4 mps 735 mmHg 68%
15:00 +14°C° 0.1 mm 4 mps 735 mmHg 70%
16:00 +14°C° 0.1 mm 4 mps 735 mmHg 72%
17:00 +13°C° 0 mm 4 mps 735 mmHg 78%
18:00 +12°C° 0 mm 3 mps 736 mmHg 83%
19:00 +11°C° 0 mm 3 mps 736 mmHg 88%
20:00 +11°C° 0 mm 3 mps 736 mmHg 90%
21:00 +11°C° 0 mm 3 mps 736 mmHg 91%
22:00 +10°C° 0 mm 2 mps 736 mmHg 92%
23:00 +10°C° 0 mm 2 mps 736 mmHg 93%

Day after tomorrow, 30 September, Wednesday

Time Temperature Precipitation Wind Pressure Humidity
00:00 +10°C° 0 mm 2 mps 736 mmHg 94%
01:00 +10°C° 0 mm 3 mps 736 mmHg 94%
02:00 +10°C° 0 mm 2 mps 736 mmHg 95%
03:00 +10°C° 0 mm 2 mps 736 mmHg 95%
04:00 +10°C° 0 mm 2 mps 735 mmHg 95%
05:00 +10°C° 0 mm 2 mps 735 mmHg 94%
06:00 +12°C° 0 mm 2 mps 735 mmHg 94%
07:00 +12°C° 0 mm 2 mps 735 mmHg 93%
08:00 +13°C° 0 mm 2 mps 735 mmHg 90%
09:00 +13°C° 0 mm 2 mps 735 mmHg 87%
10:00 +13°C° 0 mm 3 mps 735 mmHg 83%
11:00 +14°C° 0 mm 3 mps 734 mmHg 81%
12:00 +14°C° 0 mm 3 mps 734 mmHg 78%
13:00 +16°C° 0 mm 3 mps 734 mmHg 75%
14:00 +16°C° 0.1 mm 3 mps 733 mmHg 76%
15:00 +16°C° 0.1 mm 3 mps 733 mmHg 78%
16:00 +16°C° 0.1 mm 2 mps 732 mmHg 79%
17:00 +15°C° 0 mm 2 mps 733 mmHg 84%
18:00 +14°C° 0 mm 2 mps 733 mmHg 88%
19:00 +12°C° 0 mm 2 mps 733 mmHg 93%
20:00 +12°C° 0 mm 2 mps 732 mmHg 93%
21:00 +12°C° 0 mm 2 mps 732 mmHg 94%
22:00 +12°C° 0 mm 2 mps 732 mmHg 94%
23:00 +12°C° 0 mm 2 mps 732 mmHg 94%

1 October, Thursday

Time Temperature Precipitation Wind Pressure Humidity
00:00 +10°C° 0 mm 2 mps 731 mmHg 94%
01:00 +10°C° 0 mm 2 mps 731 mmHg 95%
02:00 +10°C° 0 mm 2 mps 731 mmHg 94%
03:00 +10°C° 0 mm 2 mps 730 mmHg 94%
04:00 +10°C° 0 mm 2 mps 730 mmHg 93%
05:00 +10°C° 0 mm 2 mps 730 mmHg 93%
06:00 +12°C° 0 mm 1 mps 730 mmHg 92%
07:00 +12°C° 0 mm 1 mps 730 mmHg 91%
08:00 +13°C° 0 mm 1 mps 729 mmHg 87%
09:00 +14°C° 0 mm 1 mps 729 mmHg 82%
10:00 +15°C° 0 mm 1 mps 729 mmHg 78%
11:00 +18°C° 0 mm 1 mps 728 mmHg 73%
12:00 +19°C° 0 mm 1 mps 728 mmHg 68%
13:00 +20°C° 0 mm 1 mps 728 mmHg 62%
14:00 +20°C° 0 mm 1 mps 728 mmHg 65%
15:00 +20°C° 0 mm 1 mps 727 mmHg 67%
16:00 +20°C° 0 mm 1 mps 727 mmHg 69%
17:00 +18°C° 0 mm 1 mps 727 mmHg 75%
18:00 +15°C° 0 mm 1 mps 727 mmHg 82%
19:00 +14°C° 0 mm 1 mps 727 mmHg 89%
20:00 +13°C° 0 mm 1 mps 727 mmHg 89%
21:00 +13°C° 0 mm 1 mps 727 mmHg 90%
22:00 +12°C° 0 mm 0 mps 727 mmHg 91%
23:00 +11°C° 0 mm 0 mps 727 mmHg 91%

2 October, Friday

Time Temperature Precipitation Wind Pressure Humidity
00:00 +11°C° 0 mm 0 mps 727 mmHg 91%
01:00 +11°C° 0 mm 0 mps 727 mmHg 91%
02:00 +11°C° 0 mm 0 mps 727 mmHg 92%
03:00 +11°C° 0 mm 0 mps 727 mmHg 92%
04:00 +10°C° 0 mm 0 mps 727 mmHg 92%
05:00 +12°C° 0 mm 1 mps 727 mmHg 93%
06:00 +12°C° 0 mm 1 mps 726 mmHg 93%
07:00 +12°C° 0 mm 1 mps 726 mmHg 93%
08:00 +14°C° 0 mm 2 mps 726 mmHg 85%
09:00 +16°C° 0 mm 3 mps 726 mmHg 78%
10:00 +18°C° 0 mm 3 mps 726 mmHg 70%
11:00 +19°C° 0 mm 4 mps 725 mmHg 68%
12:00 +20°C° 0 mm 4 mps 725 mmHg 65%
13:00 +21°C° 0 mm 4 mps 725 mmHg 63%
14:00 +20°C° 0 mm 4 mps 724 mmHg 65%
15:00 +20°C° 0 mm 3 mps 724 mmHg 68%
16:00 +19°C° 0 mm 2 mps 724 mmHg 71%
17:00 +18°C° 0 mm 2 mps 724 mmHg 76%
18:00 +16°C° 0 mm 2 mps 724 mmHg 82%
19:00 +15°C° 0 mm 2 mps 724 mmHg 88%
20:00 +14°C° 0 mm 2 mps 724 mmHg 89%
21:00 +14°C° 0 mm 2 mps 724 mmHg 90%
22:00 +14°C° 0 mm 1 mps 724 mmHg 91%
23:00 +14°C° 0 mm 1 mps 724 mmHg 91%

3 October, Saturday

Time Temperature Precipitation Wind Pressure Humidity
00:00 +13°C° 0 mm 1 mps 723 mmHg 92%
01:00 +13°C° 0 mm 1 mps 723 mmHg 92%
02:00 +13°C° 0 mm 2 mps 723 mmHg 92%
03:00 +13°C° 0 mm 2 mps 723 mmHg 91%
04:00 +13°C° 0 mm 2 mps 722 mmHg 91%
05:00 +14°C° 0 mm 2 mps 723 mmHg 90%
06:00 +14°C° 0 mm 2 mps 723 mmHg 89%
07:00 +14°C° 0 mm 2 mps 723 mmHg 88%
08:00 +17°C° 0 mm 2 mps 723 mmHg 78%
09:00 +20°C° 0 mm 1 mps 723 mmHg 69%
10:00 +23°C° 0 mm 1 mps 724 mmHg 60%
11:00 +24°C° 0 mm 2 mps 724 mmHg 56%
12:00 +25°C° 0 mm 2 mps 724 mmHg 53%
13:00 +26°C° 0 mm 3 mps 724 mmHg 50%
14:00 +26°C° 0 mm 3 mps 724 mmHg 55%
15:00 +25°C° 0 mm 3 mps 724 mmHg 59%
16:00 +24°C° 0 mm 2 mps 724 mmHg 64%
17:00 +23°C° 0 mm 2 mps 724 mmHg 66%
18:00 +21°C° 0 mm 2 mps 724 mmHg 68%
19:00 +20°C° 0 mm 2 mps 724 mmHg 69%
20:00 +19°C° 0 mm 2 mps 724 mmHg 72%
21:00 +19°C° 0 mm 2 mps 724 mmHg 75%
22:00 +18°C° 0 mm 2 mps 724 mmHg 78%
23:00 +17°C° 0.1 mm 2 mps 724 mmHg 82%
Show more